Location: Chenango Forks
(42.2242°N, 75.8278°W)
Time: 09:57:48
(UTC-05:00)

Daily predictions for brighter satellites

Satellite Brightness Start Highest point End
(mag) Time Altitude Azimuth Time Altitude Azimuth Time Altitude Azimuth
Meteor 1-21 Rocket 4.4 17:21:16 10° S 17:27:10 80° E 17:33:03 10° NNE
Cosmos 44 4.5 17:25:27 10° S 17:29:56 29° ESE 17:34:17 10° NE
CORIOLIS 4.1 17:24:58 10° SSE 17:30:17 72° ENE 17:35:38 10° N
Cosmos 2333 Rocket 2.8 17:26:27 10° S 17:31:38 39° ESE 17:36:51 10° NE
Cosmos 1766 Rocket 4.0 17:28:29 10° SSW 17:32:55 69° W 17:37:22 10° N
OTV 4 2.0 17:31:36 10° WSW 17:34:19 32° S 17:37:01 10° ESE
Atlas Centaur 2 4.4 17:37:01 10° SW 17:39:53 14° SSW 17:42:27 10° S
Cosmos 2219 Rocket 2.3 17:35:37 10° S 17:41:09 61° ESE 17:46:42 10° NNE
Cosmos 371 Rocket 3.5 17:37:13 10° S 17:41:52 51° ESE 17:46:32 10° NNE
COSMO-SKYMED 1 3.1 17:39:09 10° NNE 17:43:11 37° E 17:47:13 10° SSE
YAOGAN 1 2.7 17:40:06 10° SSE 17:44:25 82° WSW 17:48:47 10° NNW
Molniya-1 4.1 17:41:54 10° SW 17:44:35 77° NW 17:49:20 10° NE
CZ-4 R/B 4.4 17:42:04 10° SSE 17:46:12 80° ENE 17:50:22 10° N
Thor Agena Rocket 3.6 17:41:47 10° NNE 17:47:04 86° ESE 17:52:15 10° SSW
Cosmos 1125 Rocket 3.6 17:42:22 10° N 17:47:27 50° ENE 17:52:29 10° SE
Cosmos 2278 Rocket 2.5 17:42:22 10° NNW 17:47:51 47° ENE 17:53:17 10° SE
SPOT 3 Rocket 3.8 17:42:51 10° S 17:48:00 78° WSW 17:53:11 10° NNW
Cosmos 2058 3.9 17:44:36 10° SE 17:48:02 26° E 17:51:26 10° NNE
BREEZE-M DEB (TANK) 4.3 17:46:55 10° WNW 17:51:04 44° SW 17:56:37 10° SSE
Cosmos 2279 Rocket 4.4 17:45:33 10° N 17:51:22 39° ENE 17:57:08 10° SE
SMAP 3.7 17:47:20 10° S 17:51:56 61° W 17:56:33 10° NNW
USA 116 4.1 17:48:59 10° N 17:52:08 50° WNW 17:55:08 10° SSW
Cosmos 2228 Rocket 3.3 17:48:17 10° NNW 17:52:41 75° W 17:57:07 10° S
Cosmos 1844 3.8 17:53:46 10° NNW 17:59:34 85° WSW 18:05:22 10° SSE
Cosmos 1626 3.9 17:57:36 10° ESE 17:59:16 14° E 17:59:16 14° E
Cosmos 841 Rocket 3.9 17:56:04 10° SSW 18:01:18 68° WNW 18:06:34 10° NNE
Cosmos 44 Rocket 3.4 17:56:35 10° SSW 18:01:43 83° ESE 18:06:47 10° NE
Cosmos 1340 Rocket 3.7 17:58:50 10° SSE 18:02:12 27° E 18:05:16 12° NE
Cosmos 1674 4.0 17:58:39 10° SSW 18:02:17 42° WNW 18:05:58 10° N
CENTAUR R/B 3.2 17:58:00 10° SW 18:03:59 54° NW 18:10:49 10° NNE
IDEFIX/ARIANE 42P 4.0 18:01:26 10° SSW 18:06:19 41° W 18:11:16 10° NNW
SL-14 R/B 3.3 18:04:38 10° S 18:08:30 60° E 18:12:25 10° NNE
Lacrosse 5 3.8 18:06:26 10° WNW 18:09:57 19° NNW 18:13:30 10° NNE
DNEPR-1 R/B 4.5 18:04:43 10° SSW 18:11:44 88° ESE 18:17:18 11° NE
COSMOS 2428 3.8 18:07:12 10° SW 18:12:39 44° WNW 18:18:06 10° NNE
Cosmos 1484 Rocket 3.1 18:09:12 10° S 18:13:06 72° W 18:17:05 10° NNW
Cosmos 2237 Rocket 2.2 18:07:42 10° SSW 18:13:15 67° ESE 18:18:52 10° NNE
SKYMED 3 4.5 18:08:58 10° NNE 18:13:20 81° ESE 18:17:40 10° S
CZ-2C R/B 4.4 18:11:03 10° SSW 18:15:31 32° W 18:19:53 10° NNW
Cosmos 1726 2.1 18:12:01 10° N 18:15:49 89° WNW 18:19:35 10° S
SL-16 R/B 2.9 18:13:52 10° SSE 18:18:46 32° ESE 18:21:40 20° ENE
Cosmos 2151 2.8 18:14:45 10° S 18:18:56 83° E 18:23:10 10° N
Cosmos 1300 2.7 18:15:44 10° N 18:19:34 84° W 18:23:24 10° S
Timation 1 Rocket 4.5 18:19:14 10° NNW 18:25:07 51° ENE 18:30:57 10° SE
Cosmos 304 Rocket 4.2 18:21:05 10° S 18:25:35 41° ESE 18:28:11 22° NE
Cosmos 2297 3.9 18:22:32 10° NNW 18:28:02 47° ENE 18:33:32 10° SE
Aureole 2 Rocket 2.6 18:27:41 10° S 18:31:18 65° ESE 18:33:25 25° NNE
SKYMED 2 4.0 18:27:03 10° N 18:31:21 64° WNW 18:35:38 10° SSW
Cosmos 1151 Rocket 3.7 18:28:29 10° NNW 18:32:41 56° W 18:36:52 10° S
Cosmos 1805 Rocket 3.6 18:30:26 10° S 18:34:46 54° E 18:38:22 15° NNE
BREEZE M DEB (TANK) 1.2 18:34:40 10° WNW 18:37:00 67° NNW 18:37:00 67° NNW
Lacrosse 5 rocket 1.0 18:35:02 10° NW 18:38:50 72° NE 18:40:18 36° ESE
Abrixas 2.6 18:36:58 10° SW 18:39:46 55° SSE 18:39:46 55° SSE
Meteor 1-28 Rocket 3.7 18:40:29 10° N 18:44:09 59° WNW 18:47:48 10° SSW
Meteor 1-11 4.4 18:40:43 10° SSW 18:46:23 76° W 18:52:10 10° N
Sich 1 3.0 18:52:15 10° S 18:56:37 61° E 18:57:08 56° ENE
Cosmos 1633 Rocket 3.2 18:56:48 10° S 19:00:36 55° SE 19:00:36 55° SE
FengYun 1-2 T 4.1 18:56:39 10° SSE 19:02:11 71° ENE 19:07:42 10° N
Lacrosse 4 Rocket 3.7 18:59:52 10° N 19:00:21 12° N 19:00:21 12° N
FENGYUN 3A 3.5 19:00:36 10° SSE 19:05:54 71° ENE 19:11:17 10° N
USA 215 3.5 19:01:55 12° SE 19:08:07 69° SW 19:14:40 10° NW
SJ-6B 3.6 19:04:18 10° S 19:08:16 54° W 19:12:19 10° NNW
ALOS 2.1 19:04:15 10° SSE 19:08:55 79° ENE 19:13:36 10° N
OTV 4 3.2 19:08:11 10° WSW 19:09:45 14° SSW 19:09:45 14° SSW
Cosmos 44 4.4 19:06:04 10° WSW 19:11:02 42° NW 19:13:37 24° N
Cosmos 2333 Rocket 3.8 19:10:56 10° WSW 19:15:57 32° NW 19:20:56 10° N
Resurs 01 Rocket 1.6 19:17:34 76° NNW 19:17:34 76° NNW 19:21:42 10° NNW
Cosmos 1461 3.2 19:14:51 10° SSW 19:18:18 59° SW 19:18:18 59° SW
ATLAS 5 CENTAUR R/B 4.3 19:16:46 10° N 19:18:03 12° N 19:18:03 12° N
Cosmos 1703 4.4 19:16:47 10° SSW 19:20:29 42° WNW 19:21:52 30° NNW
Cosmos 1707 Rocket 4.3 19:18:32 10° NNW 19:22:44 51° W 19:26:56 10° S
Cosmos 2219 Rocket 4.3 19:21:12 10° WSW 19:25:33 22° NW 19:29:53 10° N
Cosmos 2278 Rocket 4.3 19:27:02 10° NW 19:31:37 26° WSW 19:36:12 10° SSW
Cosmos 1666 Rocket 4.4 19:29:27 10° SSW 19:33:38 48° WNW 19:34:05 46° WNW
Cosmos 1626 3.8 19:31:11 10° SW 19:34:02 33° W 19:34:02 33° W
Spot 2 Rocket 3.9 19:32:28 10° S 19:37:28 61° W 19:42:28 10° NNW
USA 229 DEB 3.7 19:43:30 10° SSW 19:49:29 67° S 19:49:29 67° S
USA 229 3.7 19:43:36 10° SSW 19:49:31 66° S 19:49:31 66° S
Lacrosse 5 4.3 19:51:41 10° NNW 19:52:57 13° NNW 19:52:57 13° NNW
Cosmos 2237 Rocket 4.4 19:53:42 10° W 19:57:51 21° NW 20:01:05 13° N
Aureole 1 Rocket 4.4 19:57:14 10° SSW 20:01:10 51° WSW 20:01:10 51° WSW
SL-16 R/B 3.4 19:57:31 10° SW 20:02:45 38° WNW 20:03:37 36° NW
Cosmos 2369 Rocket 4.4 19:57:36 10° NNW 19:58:25 14° N 19:58:25 14° N
Lacrosse 5 rocket 4.5 20:15:38 10° W 20:16:06 11° W 20:16:06 11° W
